This is the latest recevied weather packets stored in our database for station/object 9W2CHF-4. If no packets are shown the sender has not sent any weather packets the latest 1 day(s).
| Time | Temp. | Humidity | Pressure | Rain* | Wind** | Luminosity | Snow |
|---|---|---|---|---|---|---|---|
| 1777881214 | 33.89° C | 54% | 1008.7 hPa | - | - | - | - |
| 1777880314 | 33.33° C | 57% | 1008.8 hPa | - | - | - | - |
| 1777879414 | 33.33° C | 59% | 1009 hPa | - | - | - | - |
| 1777878514 | 33.33° C | 66% | 1009.4 hPa | - | - | - | - |
| 1777877614 | 33.33° C | 78% | 1009.6 hPa | - | - | - | - |
| 1777876714 | 33.33° C | 81% | 1009.9 hPa | - | - | - | - |
| 1777875814 | 33.33° C | 82% | 1010 hPa | - | - | - | - |
| 1777874914 | 33.33° C | 85% | 1010.5 hPa | - | - | - | - |
| 1777874014 | 32.78° C | 87% | 1010.9 hPa | - | - | - | - |
| 1777873113 | 32.78° C | 84% | 1011.4 hPa | - | - | - | - |
| 1777872213 | 32.78° C | 83% | 1011.6 hPa | - | - | - | - |
| 1777871313 | 32.78° C | 81% | 1011.8 hPa | - | - | - | - |
| 1777870413 | 32.78° C | 81% | 1012.1 hPa | - | - | - | - |
| 1777869513 | 33.33° C | 81% | 1011.9 hPa | - | - | - | - |
| 1777868613 | 33.33° C | 78% | 1012 hPa | - | - | - | - |
| 1777867713 | 33.33° C | 77% | 1012 hPa | - | - | - | - |
| 1777866812 | 33.33° C | 75% | 1012.1 hPa | - | - | - | - |
| 1777865912 | 33.33° C | 75% | 1012.1 hPa | - | - | - | - |
| 1777865012 | 33.33° C | 75% | 1012 hPa | - | - | - | - |
| 1777864112 | 32.78° C | 77% | 1012.2 hPa | - | - | - | - |
| 1777863212 | 32.78° C | 78% | 1012.2 hPa | - | - | - | - |
| 1777862312 | 32.22° C | 82% | 1012.2 hPa | - | - | - | - |
| 1777861412 | 32.22° C | 83% | 1012.3 hPa | - | - | - | - |
| 1777860512 | 32.22° C | 84% | 1012.2 hPa | - | - | - | - |
| 1777859612 | 32.22° C | 83% | 1012.2 hPa | - | - | - | - |
* Rain since midnight (hover to see other rain measurements)
** Current wind speed in m/s (hover to see current wind gust speed)